START_TIME,STEP,MOV.,M15,t_acc.,M20,t_acc.
1986-01-26 00:00:45.240 ,4,0,0.,24.0,0.,24.0
1986-01-26 00:01:09.240 ,3,1,0.,24.0,0.,24.0
1986-01-26 00:01:33.240 ,3,0,0.,24.0,0.,24.0
1986-01-26 00:01:57.240 ,2,1,0.,24.0,0.,24.0
1986-01-26 00:02:21.240 ,2,0,0.,24.0,0.,24.0
1986-01-26 00:02:45.240 ,1,1,1.,24.0,0.,24.0
1986-01-26 00:03:09.240 ,1,0,0.,24.0,0.,24.0
1986-01-26 00:03:33.240 ,0,1,0.,24.0,0.,24.0
1986-01-26 00:03:57.240 ,0,0,0.,24.0,0.,24.0
1986-01-26 00:04:21.240 ,0,1,0.,24.0,0.,24.0
1986-01-26 00:04:45.240 ,0,0,0.,24.0,0.,24.0
1986-01-26 00:05:09.240 ,1,1,0.,24.0,0.,24.0
1986-01-26 00:05:33.240 ,1,0,0.,24.0,0.,24.0
1986-01-26 00:05:57.240 ,2,1,0.,24.0,0.,24.0
1986-01-26 00:06:21.240 ,2,0,0.,24.0,0.,24.0
1986-01-26 00:06:45.240 ,3,1,0.,24.0,0.,24.0
1986-01-26 00:07:09.240 ,3,0,0.,24.0,0.,24.0
1986-01-26 00:07:33.240 ,4,1,1.,24.0,0.,24.0
1986-01-26 00:07:57.240 ,4,0,0.,24.0,0.,24.0
1986-01-26 00:08:21.240 ,5,1,0.,24.0,0.,24.0
1986-01-26 00:08:45.240 ,5,0,1.,24.0,0.,24.0
1986-01-26 00:09:09.240 ,6,1,1.,24.0,0.,24.0
1986-01-26 00:09:33.240 ,6,0,1.,24.0,0.,24.0
1986-01-26 00:09:57.240 ,7,1,0.,24.0,0.,24.0
1986-01-26 00:10:21.240 ,7,0,0.,24.0,0.,24.0
1986-01-26 00:10:45.240 ,7,1,0.,24.0,0.,24.0
1986-01-26 00:11:09.240 ,7,0,0.,24.0,0.,24.0
1986-01-26 00:11:33.240 ,6,1,0.,24.0,0.,24.0
1986-01-26 00:11:57.240 ,6,0,0.,24.0,0.,24.0
1986-01-26 00:12:21.240 ,5,1,0.,24.0,0.,24.0
1986-01-26 00:12:45.240 ,5,0,1.,24.0,0.,24.0
1986-01-26 00:13:09.240 ,4,1,1.,24.0,0.,24.0
1986-01-26 00:13:33.240 ,4,0,0.,24.0,0.,24.0
1986-01-26 00:13:57.240 ,3,1,0.,24.0,0.,24.0
1986-01-26 00:14:21.240 ,3,0,0.,24.0,0.,24.0
1986-01-26 00:14:45.240 ,2,1,0.,24.0,0.,24.0
1986-01-26 00:15:09.240 ,2,0,0.,24.0,0.,24.0
1986-01-26 00:15:33.240 ,1,1,0.,24.0,0.,24.0
1986-01-26 00:15:57.240 ,1,0,0.,24.0,0.,24.0
1986-01-26 00:16:21.240 ,0,1,0.,24.0,0.,24.0
1986-01-26 00:16:45.240 ,0,0,0.,24.0,0.,24.0
1986-01-26 00:17:09.240 ,0,1,1.,24.0,0.,24.0
1986-01-26 00:17:33.240 ,0,0,0.,24.0,0.,24.0
1986-01-26 00:17:57.240 ,1,1,0.,24.0,0.,24.0
1986-01-26 00:18:21.240 ,1,0,0.,24.0,0.,24.0
1986-01-26 00:18:45.240 ,2,1,0.,24.0,0.,24.0
1986-01-26 00:19:09.240 ,2,0,1.,24.0,0.,24.0
1986-01-26 00:19:33.240 ,3,1,0.,24.0,0.,24.0
1986-01-26 00:19:57.240 ,3,0,0.,24.0,0.,24.0
1986-01-26 00:20:21.240 ,4,1,0.,24.0,0.,24.0
1986-01-26 00:20:45.240 ,4,0,0.,24.0,0.,24.0
1986-01-26 00:21:09.240 ,5,1,0.,24.0,0.,24.0
1986-01-26 00:21:33.240 ,5,0,0.,24.0,0.,24.0
1986-01-26 00:21:57.240 ,6,1,0.,24.0,0.,24.0
1986-01-26 00:22:21.240 ,6,0,0.,24.0,0.,24.0
1986-01-26 00:22:45.240 ,7,1,0.,24.0,0.,24.0
1986-01-26 00:23:09.240 ,7,0,1.,24.0,0.,24.0
1986-01-26 00:23:33.240 ,7,1,0.,24.0,0.,24.0
1986-01-26 00:23:57.240 ,7,0,0.,24.0,0.,24.0
1986-01-26 00:24:21.240 ,6,1,0.,24.0,0.,24.0
1986-01-26 00:24:45.240 ,6,0,0.,24.0,0.,24.0
1986-01-26 00:25:09.240 ,5,1,0.,24.0,0.,24.0
1986-01-26 00:25:33.240 ,5,0,1.,24.0,0.,24.0
1986-01-26 00:25:57.240 ,4,1,0.,24.0,0.,24.0
1986-01-26 00:26:21.240 ,4,0,1.,24.0,0.,24.0
1986-01-26 00:26:45.240 ,3,1,0.,24.0,0.,24.0
1986-01-26 00:27:09.240 ,3,0,0.,24.0,0.,24.0
1986-01-26 00:27:33.240 ,2,1,0.,24.0,0.,24.0
1986-01-26 00:27:57.240 ,2,0,0.,24.0,0.,24.0
1986-01-26 00:28:21.240 ,1,1,0.,24.0,0.,24.0
1986-01-26 00:28:45.240 ,1,0,0.,24.0,0.,24.0
1986-01-26 00:29:09.240 ,0,1,0.,24.0,0.,24.0
1986-01-26 00:29:33.240 ,0,0,0.,24.0,0.,24.0
1986-01-26 00:29:57.240 ,0,1,0.,24.0,0.,24.0
1986-01-26 00:30:21.240 ,0,0,0.,24.0,0.,24.0
1986-01-26 00:30:45.240 ,1,1,0.,24.0,0.,24.0
1986-01-26 00:31:09.240 ,1,0,0.,24.0,0.,24.0
1986-01-26 00:31:33.240 ,2,1,0.,24.0,0.,24.0
1986-01-26 00:31:57.240 ,2,0,0.,24.0,0.,24.0
1986-01-26 00:32:21.240 ,3,1,0.,24.0,0.,24.0
1986-01-26 00:32:45.240 ,3,0,0.,24.0,0.,24.0
1986-01-26 00:33:09.240 ,4,1,0.,24.0,0.,24.0
1986-01-26 00:33:33.240 ,4,0,0.,24.0,0.,24.0
1986-01-26 00:33:57.240 ,5,1,0.,24.0,0.,24.0
1986-01-26 00:34:21.240 ,5,0,1.,24.0,0.,24.0
1986-01-26 00:34:45.240 ,6,1,0.,24.0,0.,24.0
1986-01-26 00:35:09.240 ,6,0,0.,24.0,0.,24.0
1986-01-26 00:35:33.240 ,7,1,0.,24.0,0.,24.0
1986-01-26 00:35:57.240 ,7,0,0.,24.0,0.,24.0
1986-01-26 00:36:21.240 ,7,1,0.,24.0,0.,24.0
1986-01-26 00:36:45.240 ,7,0,0.,24.0,0.,24.0
1986-01-26 00:37:09.240 ,6,1,0.,24.0,0.,24.0
1986-01-26 00:37:33.240 ,6,0,1.,24.0,0.,24.0
1986-01-26 00:37:57.240 ,5,1,0.,24.0,0.,24.0
1986-01-26 00:38:21.240 ,5,0,0.,24.0,0.,24.0
1986-01-26 00:38:45.240 ,4,1,0.,24.0,0.,24.0
1986-01-26 00:39:09.240 ,4,0,0.,24.0,0.,24.0
1986-01-26 00:39:33.240 ,3,1,0.,24.0,0.,24.0
1986-01-26 00:39:57.240 ,3,0,0.,24.0,0.,24.0
1986-01-26 00:40:21.240 ,2,1,0.,24.0,0.,24.0
1986-01-26 00:40:45.240 ,2,0,1.,24.0,0.,24.0
1986-01-26 00:41:09.240 ,1,1,0.,24.0,0.,24.0
1986-01-26 00:41:33.240 ,1,0,0.,24.0,0.,24.0
1986-01-26 00:41:57.240 ,0,1,0.,24.0,0.,24.0
1986-01-26 00:42:21.240 ,0,0,0.,24.0,0.,24.0
1986-01-26 00:42:45.240 ,0,1,0.,24.0,0.,24.0
1986-01-26 00:43:09.240 ,0,0,1.,24.0,0.,24.0
1986-01-26 00:43:33.240 ,1,1,0.,24.0,0.,24.0
1986-01-26 00:43:57.240 ,1,0,0.,24.0,0.,24.0
1986-01-26 00:44:21.240 ,2,1,0.,24.0,0.,24.0
1986-01-26 00:44:45.240 ,2,0,0.,24.0,0.,24.0
1986-01-26 00:45:09.240 ,3,1,0.,24.0,0.,24.0
1986-01-26 00:45:33.240 ,3,0,0.,24.0,0.,24.0
1986-01-26 00:45:57.240 ,4,1,0.,24.0,0.,24.0
1986-01-26 00:46:21.240 ,4,0,0.,24.0,0.,24.0
1986-01-26 00:46:45.240 ,5,1,0.,24.0,0.,24.0
1986-01-26 00:47:09.240 ,5,0,0.,24.0,0.,24.0
1986-01-26 00:47:33.240 ,6,1,0.,24.0,0.,24.0
1986-01-26 00:47:57.240 ,6,0,0.,24.0,0.,24.0
1986-01-26 00:48:21.240 ,7,1,1.,24.0,0.,24.0
1986-01-26 00:48:45.240 ,7,0,0.,24.0,0.,24.0
1986-01-26 00:49:09.240 ,7,1,0.,24.0,0.,24.0
1986-01-26 00:49:33.240 ,7,0,0.,24.0,0.,24.0
1986-01-26 00:49:57.240 ,6,1,0.,24.0,0.,24.0
1986-01-26 00:50:21.240 ,6,0,0.,24.0,0.,24.0
1986-01-26 00:50:45.240 ,5,1,0.,24.0,0.,24.0
1986-01-26 00:51:09.240 ,5,0,0.,24.0,0.,24.0
1986-01-26 00:51:33.240 ,4,1,0.,24.0,0.,24.0
1986-01-26 00:51:57.240 ,4,0,0.,24.0,0.,24.0
1986-01-26 00:52:21.240 ,3,1,1.,24.0,0.,24.0
1986-01-26 00:52:45.240 ,3,0,0.,24.0,0.,24.0
1986-01-26 00:53:09.240 ,2,1,0.,24.0,0.,24.0
1986-01-26 00:53:33.240 ,2,0,0.,24.0,0.,24.0
1986-01-26 00:53:57.240 ,1,1,0.,24.0,0.,24.0
1986-01-26 00:54:21.240 ,1,0,0.,24.0,0.,24.0
1986-01-26 00:54:45.240 ,0,1,0.,24.0,0.,24.0
1986-01-26 00:55:09.240 ,0,0,0.,24.0,0.,24.0
1986-01-26 00:55:33.240 ,0,1,0.,24.0,0.,24.0
1986-01-26 00:55:57.240 ,0,0,0.,24.0,0.,24.0
1986-01-26 00:56:21.240 ,1,1,0.,24.0,0.,24.0
1986-01-26 00:56:45.240 ,1,0,0.,24.0,0.,24.0
1986-01-26 00:57:09.240 ,2,1,0.,24.0,0.,24.0
1986-01-26 00:57:33.240 ,2,0,0.,24.0,0.,24.0
1986-01-26 00:57:57.240 ,3,1,0.,24.0,0.,24.0
1986-01-26 00:58:21.240 ,3,0,0.,24.0,0.,24.0
1986-01-26 00:58:45.240 ,4,1,0.,24.0,0.,24.0
1986-01-26 00:59:09.240 ,4,0,0.,24.0,0.,24.0
1986-01-26 00:59:33.240 ,5,1,0.,24.0,0.,24.0
1986-01-26 00:59:57.240 ,5,0,0.,24.0,0.,24.0
1986-01-26 01:00:21.240 ,6,1,0.,24.0,0.,24.0
1986-01-26 01:00:45.240 ,6,0,0.,24.0,0.,24.0
1986-01-26 01:01:09.240 ,7,1,0.,24.0,0.,24.0
1986-01-26 01:01:33.240 ,7,0,0.,24.0,0.,24.0
1986-01-26 01:01:57.240 ,7,1,0.,24.0,0.,24.0
1986-01-26 01:02:21.240 ,7,0,0.,24.0,0.,24.0
1986-01-26 01:02:45.240 ,6,1,0.,24.0,0.,24.0
1986-01-26 01:03:09.240 ,6,0,1.,24.0,0.,24.0
1986-01-26 01:03:33.240 ,5,1,0.,24.0,0.,24.0
1986-01-26 01:03:57.240 ,5,0,0.,24.0,0.,24.0
1986-01-26 01:04:21.240 ,4,1,0.,24.0,0.,24.0
1986-01-26 01:04:45.240 ,4,0,0.,24.0,0.,24.0
1986-01-26 01:05:09.240 ,3,1,0.,24.0,0.,24.0
1986-01-26 01:05:33.240 ,3,0,0.,24.0,0.,24.0
1986-01-26 01:05:57.240 ,2,1,0.,24.0,0.,24.0
1986-01-26 01:06:21.240 ,2,0,0.,24.0,0.,24.0
1986-01-26 01:06:45.240 ,1,1,0.,24.0,0.,24.0
1986-01-26 01:07:09.240 ,1,0,0.,24.0,0.,24.0
1986-01-26 01:07:33.240 ,0,1,0.,24.0,0.,24.0
1986-01-26 01:07:57.240 ,0,0,0.,24.0,0.,24.0
1986-01-26 01:08:21.240 ,0,1,0.,24.0,0.,24.0
1986-01-26 01:08:45.240 ,0,0,0.,24.0,0.,24.0
1986-01-26 01:09:09.240 ,1,1,0.,24.0,0.,24.0
1986-01-26 01:09:33.240 ,1,0,0.,24.0,0.,24.0
1986-01-26 01:09:57.240 ,2,1,0.,24.0,0.,24.0
1986-01-26 01:10:21.240 ,2,0,0.,24.0,0.,24.0
1986-01-26 01:10:45.240 ,3,1,0.,24.0,0.,24.0
1986-01-26 01:11:09.240 ,3,0,0.,24.0,0.,24.0
1986-01-26 01:11:33.240 ,4,1,0.,24.0,0.,24.0
1986-01-26 01:11:57.240 ,4,0,0.,24.0,0.,24.0
1986-01-26 01:12:21.240 ,5,1,0.,24.0,0.,24.0
1986-01-26 01:12:45.240 ,5,0,0.,24.0,0.,24.0
1986-01-26 01:13:09.240 ,6,1,0.,24.0,0.,24.0
1986-01-26 01:13:33.240 ,6,0,0.,24.0,0.,24.0
1986-01-26 01:13:57.240 ,7,1,0.,24.0,0.,24.0
1986-01-26 01:14:21.240 ,7,0,0.,24.0,0.,24.0
1986-01-26 01:14:45.240 ,7,1,0.,24.0,0.,24.0
1986-01-26 01:15:09.240 ,7,0,0.,24.0,0.,24.0
1986-01-26 01:15:33.240 ,6,1,0.,24.0,0.,24.0
1986-01-26 01:15:57.240 ,6,0,0.,24.0,0.,24.0
1986-01-26 01:16:21.240 ,5,1,0.,24.0,0.,24.0
1986-01-26 01:16:45.240 ,5,0,0.,24.0,0.,24.0
1986-01-26 01:17:09.240 ,4,1,0.,24.0,0.,24.0
1986-01-26 01:17:33.240 ,4,0,0.,24.0,0.,24.0
1986-01-26 01:17:57.240 ,3,1,0.,24.0,0.,24.0
1986-01-26 01:18:21.240 ,3,0,1.,24.0,0.,24.0
1986-01-26 01:18:45.240 ,2,1,0.,24.0,0.,24.0
1986-01-26 01:19:09.240 ,2,0,0.,24.0,0.,24.0
1986-01-26 01:19:33.240 ,1,1,0.,24.0,0.,24.0
1986-01-26 01:19:57.240 ,1,0,0.,24.0,0.,24.0
1986-01-26 01:20:21.240 ,0,1,0.,24.0,0.,24.0
1986-01-26 01:20:45.240 ,0,0,0.,24.0,0.,24.0
1986-01-26 01:21:09.240 ,0,1,0.,24.0,0.,24.0
1986-01-26 01:21:33.240 ,0,0,2.,24.0,0.,24.0
1986-01-26 01:21:57.240 ,1,1,0.,24.0,0.,24.0
1986-01-26 01:22:21.240 ,1,0,0.,24.0,0.,24.0
1986-01-26 01:22:45.240 ,2,1,0.,24.0,0.,24.0
1986-01-26 01:23:09.240 ,2,0,0.,24.0,0.,24.0
1986-01-26 01:23:33.240 ,3,1,0.,24.0,0.,24.0
1986-01-26 01:23:57.240 ,3,0,1.,24.0,0.,24.0
1986-01-26 01:24:21.240 ,4,1,0.,24.0,0.,24.0
1986-01-26 01:24:45.240 ,4,0,0.,24.0,0.,24.0
1986-01-26 01:25:09.240 ,5,1,0.,24.0,0.,24.0
1986-01-26 01:25:33.240 ,5,0,0.,24.0,0.,24.0
1986-01-26 01:25:57.240 ,6,1,0.,24.0,0.,24.0
1986-01-26 01:26:21.240 ,6,0,0.,24.0,0.,24.0
1986-01-26 01:26:45.240 ,7,1,0.,24.0,0.,24.0
1986-01-26 01:27:09.240 ,7,0,0.,24.0,0.,24.0
1986-01-26 01:27:33.240 ,7,1,0.,24.0,0.,24.0
1986-01-26 01:27:57.240 ,7,0,0.,24.0,0.,24.0
1986-01-26 01:28:21.240 ,6,1,0.,24.0,0.,24.0
1986-01-26 01:28:45.240 ,6,0,0.,24.0,0.,24.0
1986-01-26 01:29:09.240 ,5,1,0.,24.0,0.,24.0
1986-01-26 01:29:33.240 ,5,0,1.,24.0,0.,24.0
1986-01-26 01:29:57.240 ,4,1,0.,24.0,0.,24.0
1986-01-26 01:30:21.240 ,4,0,0.,24.0,0.,24.0
1986-01-26 01:30:45.240 ,3,1,0.,24.0,0.,24.0
1986-01-26 01:31:09.240 ,3,0,0.,24.0,0.,24.0
1986-01-26 01:31:33.240 ,2,1,0.,24.0,0.,24.0
1986-01-26 01:31:57.240 ,2,0,0.,24.0,0.,24.0
1986-01-26 01:32:21.240 ,1,1,0.,24.0,0.,24.0
1986-01-26 01:32:45.240 ,1,0,0.,24.0,0.,24.0
1986-01-26 01:33:09.240 ,0,1,0.,24.0,0.,24.0
1986-01-26 01:33:33.240 ,0,0,1.,24.0,0.,24.0
1986-01-26 01:33:57.240 ,0,1,0.,24.0,0.,24.0
1986-01-26 01:34:21.240 ,0,0,0.,24.0,0.,24.0
1986-01-26 01:34:45.240 ,1,1,0.,24.0,0.,24.0
1986-01-26 01:35:09.240 ,1,0,0.,24.0,0.,24.0
1986-01-26 01:35:33.240 ,2,1,0.,24.0,0.,24.0
1986-01-26 01:35:57.240 ,2,0,0.,24.0,0.,24.0
1986-01-26 01:36:21.240 ,3,1,0.,24.0,0.,24.0
1986-01-26 01:36:45.240 ,3,0,0.,24.0,0.,24.0
1986-01-26 01:37:09.240 ,4,1,0.,24.0,0.,24.0
1986-01-26 01:37:33.240 ,4,0,0.,24.0,0.,24.0
1986-01-26 01:37:57.240 ,5,1,0.,24.0,0.,24.0
1986-01-26 01:38:21.240 ,5,0,0.,24.0,0.,24.0
1986-01-26 01:38:45.240 ,6,1,1.,24.0,0.,24.0
1986-01-26 01:39:09.240 ,6,0,0.,24.0,0.,24.0
1986-01-26 01:39:33.240 ,7,1,0.,24.0,0.,24.0
1986-01-26 01:39:57.240 ,7,0,1.,24.0,0.,24.0
1986-01-26 01:40:21.240 ,7,1,0.,24.0,0.,24.0
1986-01-26 01:40:45.240 ,7,0,0.,24.0,0.,24.0
1986-01-26 01:41:09.240 ,6,1,0.,24.0,0.,24.0
1986-01-26 01:41:33.240 ,6,0,1.,24.0,0.,24.0
1986-01-26 01:41:57.240 ,5,1,0.,24.0,0.,24.0
1986-01-26 01:42:21.240 ,5,0,1.,24.0,0.,24.0
1986-01-26 01:42:45.240 ,4,1,0.,24.0,0.,24.0
1986-01-26 01:43:09.240 ,4,0,0.,24.0,0.,24.0
1986-01-26 01:43:33.240 ,3,1,0.,24.0,0.,24.0
1986-01-26 01:43:57.240 ,3,0,0.,24.0,0.,24.0
1986-01-26 01:44:21.240 ,2,1,1.,24.0,0.,24.0
1986-01-26 01:44:45.240 ,2,0,1.,24.0,0.,24.0
1986-01-26 01:45:09.240 ,1,1,0.,24.0,0.,24.0
1986-01-26 01:45:33.240 ,1,0,0.,24.0,0.,24.0
1986-01-26 01:45:57.240 ,0,1,0.,24.0,0.,24.0
1986-01-26 01:46:21.240 ,0,0,0.,24.0,0.,24.0
1986-01-26 01:46:45.240 ,0,1,1.,24.0,0.,24.0
1986-01-26 01:47:09.240 ,0,0,0.,24.0,0.,24.0
1986-01-26 01:47:33.240 ,1,1,0.,24.0,0.,24.0
1986-01-26 01:47:57.240 ,1,0,0.,24.0,0.,24.0
1986-01-26 01:48:21.240 ,2,1,0.,24.0,0.,24.0
1986-01-26 01:48:45.240 ,2,0,0.,24.0,0.,24.0
1986-01-26 01:49:09.240 ,3,1,0.,24.0,0.,24.0
1986-01-26 01:49:33.240 ,3,0,0.,24.0,0.,24.0
1986-01-26 01:49:57.240 ,4,1,1.,24.0,0.,24.0
1986-01-26 01:50:21.240 ,4,0,0.,24.0,0.,24.0
1986-01-26 01:50:45.240 ,5,1,0.,24.0,0.,24.0
1986-01-26 01:51:09.240 ,5,0,0.,24.0,0.,24.0
1986-01-26 01:51:33.230 ,6,1,0.,24.0,0.,24.0
1986-01-26 01:51:57.230 ,6,0,0.,24.0,0.,24.0
1986-01-26 01:52:21.230 ,7,1,0.,24.0,0.,24.0
1986-01-26 01:52:45.230 ,7,0,1.,24.0,0.,24.0
1986-01-26 01:53:09.230 ,7,1,0.,24.0,0.,24.0
1986-01-26 01:53:33.230 ,7,0,0.,24.0,0.,24.0
1986-01-26 01:53:57.230 ,6,1,0.,24.0,0.,24.0
1986-01-26 01:54:21.230 ,6,0,0.,24.0,0.,24.0
1986-01-26 01:54:45.230 ,5,1,0.,24.0,0.,24.0
1986-01-26 01:55:09.230 ,5,0,0.,24.0,0.,24.0
1986-01-26 01:55:33.230 ,4,1,1.,24.0,0.,24.0
1986-01-26 01:55:57.230 ,4,0,0.,24.0,0.,24.0
1986-01-26 01:56:21.230 ,3,1,0.,24.0,0.,24.0
1986-01-26 01:56:45.230 ,3,0,0.,24.0,0.,24.0
1986-01-26 01:57:09.230 ,2,1,0.,24.0,0.,24.0
1986-01-26 01:57:33.230 ,2,0,1.,24.0,0.,24.0
1986-01-26 01:57:57.230 ,1,1,0.,24.0,0.,24.0
1986-01-26 01:58:21.230 ,1,0,0.,24.0,0.,24.0
1986-01-26 01:58:45.230 ,0,1,0.,24.0,0.,24.0
1986-01-26 01:59:09.230 ,0,0,0.,24.0,0.,24.0
1986-01-26 01:59:33.230 ,0,1,0.,24.0,0.,24.0
1986-01-26 01:59:57.230 ,0,0,0.,24.0,0.,24.0
1986-01-26 02:00:21.230 ,1,1,0.,24.0,0.,24.0
1986-01-26 02:00:45.240 ,1,0,0.,24.0,0.,24.0
1986-01-26 02:01:09.240 ,2,1,1.,24.0,0.,24.0
1986-01-26 02:01:33.240 ,2,0,0.,24.0,0.,24.0
1986-01-26 02:01:57.240 ,3,1,0.,24.0,0.,24.0
1986-01-26 02:02:21.240 ,3,0,0.,24.0,0.,24.0
1986-01-26 02:02:45.240 ,4,1,0.,24.0,0.,24.0
1986-01-26 02:03:09.240 ,0,0,0.,24.0,0.,24.0
1986-01-26 02:03:33.240 ,0,0,0.,24.0,0.,24.0
1986-01-26 02:03:57.240 ,0,0,0.,24.0,0.,24.0
1986-01-26 02:04:21.240 ,6,1,0.,24.0,0.,24.0
1986-01-26 02:04:45.240 ,6,0,0.,24.0,0.,24.0
1986-01-26 02:05:09.230 ,7,1,0.,24.0,0.,24.0
1986-01-26 02:05:33.240 ,7,0,1.,24.0,0.,24.0
1986-01-26 02:05:57.240 ,7,1,0.,24.0,0.,24.0
1986-01-26 02:06:21.230 ,7,0,0.,24.0,0.,24.0
1986-01-26 02:06:45.230 ,6,1,0.,24.0,0.,24.0
1986-01-26 02:07:09.230 ,6,0,0.,24.0,0.,24.0
1986-01-26 02:07:33.230 ,5,1,0.,24.0,0.,24.0
1986-01-26 02:07:57.230 ,5,0,0.,24.0,0.,24.0
1986-01-26 02:08:21.230 ,4,1,0.,24.0,0.,24.0
1986-01-26 02:08:45.230 ,4,0,0.,24.0,0.,24.0
1986-01-26 02:09:57.230 ,0,0,0.,24.0,0.,24.0
1986-01-26 02:10:21.230 ,0,0,0.,24.0,0.,24.0
1986-01-26 02:10:45.230 ,1,1,0.,24.0,0.,24.0
1986-01-26 02:11:09.230 ,1,0,0.,24.0,0.,24.0
1986-01-26 02:11:33.230 ,0,1,0.,24.0,0.,24.0
1986-01-26 02:11:57.230 ,0,0,1.,24.0,0.,24.0
1986-01-26 02:12:21.230 ,0,1,0.,24.0,0.,24.0
1986-01-26 02:12:45.230 ,0,0,0.,24.0,0.,24.0
1986-01-26 02:13:09.230 ,1,1,0.,24.0,0.,24.0
1986-01-26 02:13:33.230 ,1,0,0.,24.0,0.,24.0
1986-01-26 02:13:57.230 ,2,1,0.,24.0,0.,24.0
1986-01-26 02:14:21.230 ,2,0,0.,24.0,0.,24.0
1986-01-26 02:14:45.230 ,3,1,0.,24.0,0.,24.0
1986-01-26 02:15:09.230 ,3,0,0.,24.0,0.,24.0
1986-01-26 02:15:33.230 ,4,1,0.,24.0,0.,24.0
1986-01-26 02:15:57.230 ,4,0,1.,24.0,0.,24.0
1986-01-26 02:16:21.230 ,5,1,1.,24.0,0.,24.0
1986-01-26 02:16:45.230 ,0,0,0.,24.0,0.,24.0
1986-01-26 02:26:05.630 ,0,0,0.,24.0,0.,24.0
1986-01-26 02:26:21.230 ,0,0,0.,24.0,0.,24.0
1986-01-26 02:26:45.230 ,2,1,0.,24.0,0.,24.0
1986-01-26 02:27:09.230 ,2,0,0.,24.0,0.,24.0
1986-01-26 02:27:33.230 ,3,1,0.,24.0,0.,24.0
1986-01-26 02:27:57.230 ,3,0,1.,24.0,0.,24.0
1986-01-26 02:28:21.230 ,4,1,0.,24.0,0.,24.0
1986-01-26 02:28:45.230 ,4,0,0.,24.0,0.,24.0
1986-01-26 02:29:09.230 ,5,1,0.,24.0,0.,24.0
1986-01-26 02:29:33.230 ,5,0,0.,24.0,0.,24.0
1986-01-26 02:29:57.230 ,6,1,0.,24.0,0.,24.0
1986-01-26 02:30:21.230 ,6,0,0.,24.0,0.,24.0
1986-01-26 02:30:45.230 ,7,1,0.,24.0,0.,24.0
1986-01-26 02:31:09.230 ,7,0,0.,24.0,0.,24.0
1986-01-26 02:31:33.230 ,7,1,0.,24.0,0.,24.0
1986-01-26 02:31:57.230 ,7,0,0.,24.0,0.,24.0
1986-01-26 02:32:21.230 ,6,1,0.,24.0,0.,24.0
1986-01-26 02:32:45.230 ,6,0,0.,24.0,0.,24.0
1986-01-26 02:33:09.230 ,5,1,0.,24.0,0.,24.0
1986-01-26 02:33:33.230 ,5,0,1.,24.0,0.,24.0
1986-01-26 02:33:57.230 ,4,1,0.,24.0,0.,24.0
1986-01-26 02:34:21.230 ,4,0,0.,24.0,0.,24.0
1986-01-26 02:34:45.230 ,3,1,0.,24.0,0.,24.0
1986-01-26 02:35:09.230 ,3,0,0.,24.0,0.,24.0
1986-01-26 02:35:33.230 ,2,1,0.,24.0,0.,24.0
1986-01-26 02:35:57.230 ,2,0,0.,24.0,0.,24.0
1986-01-26 02:36:21.230 ,1,1,0.,24.0,0.,24.0
1986-01-26 02:36:45.230 ,1,0,0.,24.0,0.,24.0
1986-01-26 02:37:09.230 ,0,1,0.,24.0,0.,24.0
1986-01-26 02:37:33.230 ,0,0,0.,24.0,0.,24.0
1986-01-26 02:37:57.230 ,0,1,0.,24.0,0.,24.0
1986-01-26 02:38:21.230 ,0,0,0.,24.0,0.,24.0
1986-01-26 02:38:45.230 ,1,1,0.,24.0,0.,24.0
1986-01-26 02:39:09.230 ,1,0,0.,24.0,0.,24.0
1986-01-26 02:39:33.230 ,2,1,0.,24.0,0.,24.0
1986-01-26 02:39:57.230 ,2,0,0.,24.0,0.,24.0
1986-01-26 02:40:21.230 ,3,1,0.,24.0,0.,24.0
1986-01-26 02:40:45.230 ,3,0,0.,24.0,0.,24.0
1986-01-26 02:41:09.230 ,4,1,1.,24.0,0.,24.0
1986-01-26 02:41:33.230 ,4,0,1.,24.0,0.,24.0
1986-01-26 02:41:57.230 ,5,1,0.,24.0,0.,24.0
1986-01-26 02:42:21.230 ,5,0,0.,24.0,0.,24.0
1986-01-26 02:42:45.230 ,6,1,1.,24.0,0.,24.0
1986-01-26 02:43:09.230 ,6,0,0.,24.0,0.,24.0
1986-01-26 02:43:33.230 ,7,1,0.,24.0,0.,24.0
1986-01-26 02:43:57.230 ,7,0,0.,24.0,0.,24.0
1986-01-26 02:44:21.230 ,7,1,0.,24.0,0.,24.0
1986-01-26 02:44:45.230 ,7,0,0.,24.0,0.,24.0
1986-01-26 02:45:09.230 ,6,1,0.,24.0,0.,24.0
1986-01-26 02:45:33.230 ,0,0,,0,,0
1986-01-26 02:46:04.430 ,0,0,0.,24.0,0.,24.0
1986-01-26 02:46:21.230 ,0,0,1.,24.0,0.,24.0
1986-01-26 02:46:48.830 ,4,1,0.,24.0,0.,24.0
1986-01-26 02:47:09.230 ,0,0,,0,,0
1986-01-26 02:47:33.230 ,0,0,,0,,0
1986-01-26 02:47:57.230 ,0,0,0.,24.0,0.,24.0
1986-01-26 02:48:21.230 ,0,0,,0,,0
1986-01-26 02:48:45.230 ,0,0,,0,,0
1986-01-26 02:48:45.230 ,0,0,0.,24.0,0.,24.0
1986-01-26 02:49:09.230 ,1,1,0.,24.0,0.,24.0
1986-01-26 02:49:33.230 ,1,0,0.,24.0,0.,24.0
1986-01-26 02:49:57.230 ,0,1,0.,24.0,0.,24.0
1986-01-26 02:50:21.230 ,0,0,,0,,0
1986-01-26 02:51:50.030 ,0,0,1.,24.0,0.,24.0
1986-01-26 02:51:57.230 ,0,0,1.,24.0,0.,24.0
1986-01-26 02:52:21.230 ,2,1,1.,24.0,0.,24.0
1986-01-26 02:52:45.230 ,2,0,1.,24.0,0.,24.0
1986-01-26 02:53:09.230 ,3,1,0.,24.0,0.,24.0
1986-01-26 02:53:33.230 ,3,0,0.,24.0,0.,24.0
1986-01-26 02:53:57.230 ,4,1,1.,24.0,0.,24.0
1986-01-26 02:54:21.230 ,4,0,0.,24.0,0.,24.0
1986-01-26 02:54:45.230 ,5,1,0.,24.0,0.,24.0
1986-01-26 02:55:09.230 ,5,0,0.,24.0,0.,24.0
1986-01-26 02:55:33.230 ,6,1,0.,24.0,0.,24.0
1986-01-26 02:55:57.230 ,6,0,1.,24.0,0.,24.0
1986-01-26 02:56:21.230 ,7,1,0.,24.0,0.,24.0
1986-01-26 02:56:45.230 ,7,0,0.,24.0,0.,24.0
1986-01-26 02:57:09.230 ,7,1,0.,24.0,0.,24.0
1986-01-26 02:57:33.230 ,7,0,0.,24.0,0.,24.0
1986-01-26 02:57:57.230 ,6,1,0.,24.0,0.,24.0
1986-01-26 02:58:21.230 ,6,0,0.,24.0,0.,24.0
1986-01-26 02:58:45.230 ,5,1,1.,24.0,0.,24.0
1986-01-26 02:59:09.230 ,5,0,0.,24.0,0.,24.0
1986-01-26 02:59:33.230 ,4,1,1.,24.0,0.,24.0
1986-01-26 02:59:57.230 ,4,0,0.,24.0,0.,24.0
1986-01-26 03:00:21.230 ,3,1,0.,24.0,0.,24.0
